{"data":{"norad_id":44060,"epoch":"2026-09-19T17:25:42.424608Z","epoch_age_seconds":81305,"freshness":"FRESH","line1":"1 44060U 19010D   26262.72618547 -.00000097  00000+0 -29199-3 0  9993","line2":"2 44060  87.8983 240.3676 0002219  78.5075 281.6304 13.15548095363808","mean_motion":13.15548095,"eccentricity":0.0002219,"inclination_deg":87.8983,"raan_deg":240.3676,"arg_perigee_deg":78.5075,"mean_anomaly_deg":281.6304,"bstar":-0.00029199,"rev_number":36380,"period_min":109.4600802109,"perigee_km":1200.090533282,"apogee_km":1203.4544971249,"semimajor_km":7579.9095152035,"source":"CELESTRAK","updated_at":"2026-09-20T09:00:44.543924Z"}}